Location: Downe
(51.3167°N, 0.0500°E)
Time: 21:10:46
(UTC+00:00)

Cosmos 1238 Rocket - Pass Details

Date: 17 November 2019
Orbit: 374 x 1033 km, 82.9° (Epoch: 10 December)

Event Time Altitude Azimuth Distance (km) Brightness Sun altitude
Rises 06:25:26 0° 196° (SSW) 3,772 7.1 -8.5°
Reaches altitude 10° 06:28:05 10° 199° (SSW) 2,803 6.4 -8.2°
Maximum altitude 06:34:36 68° 282° (WNW) 1,030 4.0 -7.2°
Drops below altitude 10° 06:40:29 10° 6° (N) 2,526 6.0 -6.4°
Sets 06:42:47 0° 9° (N) 3,377 6.7 -6.0°
